[[{"header":{"parameterUnit":"m.s-1","parameterCategory":1,"la1":30.2991,"la2":30.254,"lo1":-89.0895,"lo2":-89.0444,"dy":0.0017,"dx":0.0017,"nx":28,"ny":28,"refTime":"2025-07-30T03:00:00:Z","depth":0,"parameterNumber":2,"parameterNumberName":"U-component_of_WINDS"},"data":[0,0,0,0,0,0,0,0,0,0,0,0,0,0,0,0,0,0,0,0,0,0,0,0,0,0,0,0,0,0,0,0,0,0,0,0,0,0,0,0,0,0,0,0,0,0,0,0,0,0,0,0,0,0,0,0,0,0,2.3792,2.3793,0,2.3872,2.3873,2.3874,2.3836,2.3834,2.3832,2.383,2.3919,2.3923,2.3928,0,0,0,0,0,0,0,0,0,0,0,0,0,2.3614,2.3618,2.3792,2.3793,2.3794,2.3872,2.3873,2.3874,2.3836,2.3834,2.3831,2.3829,2.3918,2.3923,2.3928,0,0,0,0,0,0,0,0,0,0,0,0,0,2.3693,2.3619,2.3792,2.3784,2.3784,2.3871,2.3873,2.3874,2.3837,2.3834,2.3831,2.3828,2.3916,2.3922,2.3929,2.403,0,0,2.3948,2.3951,0,0,0,0,0,0,0,0,2.3688,2.3699,2.3784,2.3785,2.3785,2.3841,2.3843,2.3927,2.3838,2.3817,2.383,2.3826,2.3896,2.3904,2.3926,2.4034,2.4038,2.3949,2.3953,2.3955,2.3957,0,0,0,0,0,0,0,2.3683,2.3696,2.3824,2.3786,2.3786,2.378,2.3787,2.3859,2.3873,2.3819,2.3816,2.3826,2.3896,2.392,2.3928,2.4039,2.3949,2.3954,2.3958,2.3961,2.4235,2.4239,0,0,0,0,0,0,2.3677,2.3692,2.3821,2.3826,2.3728,2.3785,2.3794,2.3826,2.3872,2.3876,2.3828,2.3824,2.391,2.392,2.3931,2.4052,2.3955,2.3961,2.3965,2.4232,2.4236,2.424,0,0,0,0,0,0,2.3673,2.3689,2.3818,2.3758,2.3774,2.3791,2.3828,2.3829,2.3853,2.3879,2.3882,2.385,2.3908,2.3922,2.4005,2.4055,2.3964,2.397,2.4228,2.4233,2.4238,2.4296,0,0,0,0,0,0,2.3668,2.3688,2.3724,2.3759,2.3777,2.3889,2.3831,2.3833,2.3863,2.3858,2.39,2.3904,2.3907,2.3996,2.4011,2.4062,2.3975,2.4224,2.423,2.4236,2.429,2.4303,2.4314,0,0,0,0,0,2.3662,2.3739,2.3726,2.3742,2.3823,2.3892,2.3902,2.3902,2.3868,2.3906,2.3923,2.3903,2.4047,2.4004,2.4022,2.4075,2.422,2.4228,2.4236,2.4285,2.43,2.4314,0,0,0,0,0,0,2.3712,2.3743,2.373,2.382,2.3853,2.3885,2.3933,2.3918,2.3964,2.3957,2.3957,2.3967,2.4053,2.4073,2.4025,2.4176,2.4129,2.414,2.416,2.4175,2.4187,2.418,2.3981,0,0,0,0,0,2.3733,2.3783,2.3809,2.3886,2.3904,2.3916,2.3946,2.3942,2.3978,2.3992,2.4015,2.4053,2.4106,2.4142,2.4193,2.4293,2.4302,2.4339,2.435,2.436,2.437,2.4426,2.4442,2.4265,2.4265,2.4265,0,0,2.3778,2.3801,2.3833,2.3897,2.3922,2.3977,2.3928,2.3988,2.4029,2.4002,2.4081,2.41,2.4142,2.4234,2.4276,2.4254,2.4421,2.437,2.4377,2.4382,2.4436,2.4452,2.4467,2.4271,2.427,2.4269,0,0,2.3887,2.3909,2.3976,2.4002,2.4041,2.4048,2.4064,2.4099,2.411,2.4189,2.417,2.4221,2.4313,2.4344,2.4372,2.4494,2.4478,2.4511,2.4573,2.4627,2.4641,2.4653,2.4698,2.4714,2.4521,2.4521,2.4521,0,2.3938,2.4017,2.4013,2.4074,2.4103,2.4079,2.4149,2.4175,2.423,2.4251,2.4224,2.434,2.4367,2.4466,2.4496,2.4519,2.4539,2.4506,2.4639,2.4651,2.4663,2.4705,2.4722,2.4525,2.4524,2.4524,2.4523,0,2.4079,2.4135,2.4185,2.4235,2.427,2.4335,2.4343,2.438,2.4374,2.4385,2.4467,2.4498,2.4555,2.4579,2.4574,2.4679,2.4663,2.4638,2.459,2.4684,2.4723,2.474,2.453,2.4529,2.4528,2.4527,0,0,2.4221,2.4268,2.4287,2.431,2.4351,2.4395,2.4461,2.4514,2.4546,2.4585,2.464,2.4719,2.4696,2.4728,2.4727,2.4774,2.487,2.4743,2.4745,2.4766,2.4988,2.5007,2.5026,2.486,2.4863,2.4865,2.4985,0,2.4334,2.4444,2.4443,2.4547,2.4599,2.4578,2.4635,2.4668,2.4681,2.4729,2.4744,2.48,2.4765,2.4784,2.483,2.4849,2.4915,2.484,2.4914,2.4916,2.4903,2.5046,2.5066,2.5177,2.5,2.5003,2.5005,0,2.4479,2.452,2.4629,2.4663,2.4685,2.4736,2.4786,2.4831,2.4869,2.4875,2.4911,2.4903,2.4972,2.4922,2.5018,2.4967,2.4997,2.5011,2.5016,2.5023,2.4966,2.5058,2.5213,2.5229,2.5029,2.5027,2.5026,0,2.4572,2.4656,2.4731,2.4752,2.4794,2.483,2.485,2.4884,2.4917,2.4961,2.4983,2.5035,2.5065,2.5107,2.5114,2.5077,2.5211,2.5161,2.5219,2.5219,2.5248,2.5247,2.5411,2.5268,2.5268,2.5267,2.5267,0,2.4698,2.4766,2.4774,2.4821,2.4896,2.4895,2.4971,2.4988,2.5019,2.5071,2.5057,2.5106,2.5112,2.5164,2.517,2.5249,2.5263,2.5271,2.5272,2.5272,2.5271,2.5292,2.5285,2.5272,2.5271,2.527,2.5269,0,2.4815,2.4823,2.4904,2.4937,2.4947,2.5001,2.503,2.5076,2.5087,2.5153,2.5168,2.5187,2.5247,2.5259,2.533,2.5335,2.5429,2.5422,2.5415,2.5415,2.5472,2.5467,2.5656,2.5681,2.5522,2.5523,2.5524,0,2.4894,2.4945,2.4983,2.5015,2.5036,2.5089,2.5121,2.5124,2.5159,2.5206,2.5247,2.5305,2.5351,2.5449,2.5471,2.5526,2.552,2.5583,2.5529,2.5527,2.5522,2.5518,2.5524,2.5593,2.5595,2.5596,2.5597,0,2.5034,2.5036,2.5082,2.5131,2.517,2.5209,2.5246,2.5274,2.5281,2.5322,2.5382,2.5418,2.549,2.5549,2.5604,2.5627,2.5615,2.5614,2.5631,2.5631,2.5625,2.563,2.5444,2.561,2.5609,2.5608,2.5607,2.5607,2.5135,2.518,2.5213,2.5266,2.5294,2.5329,2.5373,2.539,2.5439,2.5497,2.5496,2.5562,2.5601,2.5673,2.5699,2.5753,2.5733,2.5757,2.5763,2.5768,2.5774,2.5617,2.5763,2.5762,2.5762,2.5762,2.5762,0,2.5275,2.5295,2.5344,2.5395,2.5437,2.542,2.546,2.5497,2.5555,2.5591,2.5636,2.5706,2.5763,2.5789,2.5846,2.5884,2.588,2.5899,2.5896,2.5902,2.5788,2.5768,2.5901,2.5901,2.5901,2.5901,2.5901,2.5901,2.5352,2.5427,2.5433,2.5522,2.5543,2.5606,2.5631,2.5664,2.5692,2.577,2.5816,2.5832,2.5865,2.5924,2.5976,2.5983,2.6005,2.6026,2.603,2.5924,2.591,2.5896,2.5877,2.6031,2.6031,2.6139,2.614,2.6141]},{"header":{"parameterUnit":"m.s-1","parameterCategory":1,"la1":30.2991,"la2":30.254,"lo1":-89.0895,"lo2":-89.0444,"dy":0.0017,"dx":0.0017,"nx":28,"ny":28,"refTime":"2025-07-30T03:00:00:Z","depth":0,"parameterNumber":3,"parameterNumberName":"V-component_of_WINDS"},"data":[0,0,0,0,0,0,0,0,0,0,0,0,0,0,0,0,0,0,0,0,0,0,0,0,0,0,0,0,0,0,0,0,0,0,0,0,0,0,0,0,0,0,0,0,0,0,0,0,0,0,0,0,0,0,0,0,0,0,3.3996,3.3997,0,3.406,3.4061,3.4062,3.4087,3.4087,3.4087,3.4087,3.4148,3.4149,3.4151,0,0,0,0,0,0,0,0,0,0,0,0,0,3.3889,3.3891,3.3996,3.3997,3.3998,3.406,3.4061,3.4062,3.4087,3.4087,3.4087,3.4087,3.4147,3.4149,3.4151,0,0,0,0,0,0,0,0,0,0,0,0,0,3.3943,3.3892,3.3996,3.4018,3.4021,3.406,3.4061,3.4062,3.4088,3.4087,3.4087,3.4087,3.4146,3.4149,3.4151,3.4172,0,0,3.4159,3.4161,0,0,0,0,0,0,0,0,3.394,3.3947,3.4014,3.4017,3.402,3.4066,3.4046,3.4099,3.4088,3.4062,3.4087,3.4087,3.412,3.4125,3.4137,3.4175,3.4177,3.416,3.4161,3.4162,3.4163,0,0,0,0,0,0,0,3.3936,3.3944,3.4021,3.4015,3.4018,3.4023,3.403,3.4056,3.4091,3.4064,3.4066,3.4074,3.4122,3.4135,3.4139,3.4178,3.416,3.4162,3.4164,3.4165,3.4233,3.4234,0,0,0,0,0,0,3.3929,3.3941,3.4019,3.4023,3.3979,3.4025,3.4033,3.4051,3.4091,3.4097,3.4074,3.4075,3.413,3.4136,3.4141,3.4167,3.4162,3.4165,3.4166,3.4233,3.4233,3.4234,0,0,0,0,0,0,3.3927,3.3936,3.4017,3.3983,3.3993,3.4027,3.4047,3.4053,3.4066,3.4099,3.4104,3.4081,3.413,3.4137,3.4164,3.4169,3.4166,3.4168,3.4233,3.4233,3.4234,3.4219,0,0,0,0,0,0,3.3924,3.3935,3.3945,3.3983,3.3995,3.4041,3.4047,3.4054,3.4071,3.4072,3.4107,3.4112,3.4131,3.416,3.4167,3.4173,3.417,3.4232,3.4233,3.4233,3.4219,3.4219,3.4218,0,0,0,0,0,3.392,3.3937,3.3945,3.3955,3.4008,3.4041,3.4048,3.407,3.4071,3.408,3.4101,3.4111,3.4168,3.4162,3.417,3.4177,3.4232,3.4233,3.4233,3.4219,3.4219,3.4218,0,0,0,0,0,0,3.3898,3.3943,3.3952,3.3983,3.4008,3.4045,3.4057,3.4069,3.4093,3.4093,3.4118,3.4126,3.415,3.4166,3.416,3.4198,3.42,3.4203,3.4187,3.4187,3.4187,3.4182,3.4173,0,0,0,0,0,3.3897,3.3922,3.3959,3.3982,3.3994,3.4024,3.4039,3.4054,3.408,3.409,3.4113,3.4136,3.4159,3.4174,3.4197,3.4221,3.4228,3.423,3.4229,3.4229,3.423,3.4243,3.4244,3.4236,3.4236,3.4236,0,0,3.3895,3.3922,3.3936,3.3978,3.4,3.4023,3.4032,3.4057,3.4073,3.4093,3.412,3.4137,3.4165,3.419,3.4202,3.4204,3.4234,3.423,3.4229,3.4231,3.4244,3.4244,3.4245,3.4236,3.4236,3.4236,0,0,3.3903,3.3927,3.3948,3.3969,3.4002,3.4021,3.4026,3.4061,3.4074,3.4101,3.4116,3.4135,3.4174,3.4193,3.4208,3.4221,3.423,3.4227,3.4226,3.4237,3.4238,3.4239,3.4242,3.4244,3.4228,3.4228,3.4228,0,3.3895,3.3933,3.3957,3.3981,3.3998,3.4018,3.4039,3.4058,3.4095,3.4105,3.4107,3.4156,3.4176,3.4206,3.4209,3.422,3.4225,3.4224,3.4236,3.4237,3.4238,3.4242,3.4243,3.4228,3.4228,3.4228,3.4228,0,3.3921,3.3947,3.396,3.3997,3.4016,3.4037,3.4063,3.4079,3.4091,3.4109,3.4135,3.416,3.4188,3.4196,3.4208,3.4226,3.4226,3.4232,3.4235,3.4238,3.4242,3.4244,3.4227,3.4227,3.4227,3.4227,0,0,3.3919,3.3968,3.3973,3.3989,3.4026,3.4045,3.4066,3.4095,3.4107,3.4131,3.4148,3.418,3.4186,3.4202,3.4216,3.4227,3.4234,3.4231,3.4232,3.423,3.4254,3.4249,3.4251,3.424,3.4241,3.4241,3.4251,0,3.3931,3.3973,3.3995,3.4026,3.4049,3.4067,3.4086,3.4109,3.4125,3.4145,3.4163,3.4185,3.4191,3.4201,3.4212,3.4231,3.4239,3.423,3.4255,3.4256,3.4248,3.4253,3.4249,3.4258,3.4253,3.4253,3.4254,0,3.3951,3.3977,3.4011,3.4044,3.4054,3.407,3.4097,3.4117,3.4142,3.4153,3.4171,3.4185,3.4206,3.4207,3.4235,3.4229,3.424,3.425,3.4251,3.4254,3.4255,3.4256,3.4261,3.4262,3.4256,3.4256,3.4256,0,3.3945,3.3988,3.4013,3.4027,3.4066,3.4076,3.4093,3.4118,3.4133,3.4156,3.4166,3.419,3.4203,3.422,3.4239,3.4239,3.4265,3.4268,3.4274,3.4273,3.4279,3.4279,3.4286,3.4286,3.4286,3.4286,3.4286,0,3.3957,3.3976,3.4011,3.4027,3.4049,3.4072,3.4093,3.411,3.4132,3.415,3.4167,3.4183,3.4207,3.4225,3.424,3.426,3.4266,3.4275,3.4278,3.4273,3.4272,3.4281,3.4281,3.4287,3.4287,3.4286,3.4286,0,3.3953,3.3978,3.4007,3.4041,3.405,3.4065,3.4093,3.4108,3.4125,3.4147,3.4153,3.418,3.4202,3.4223,3.4252,3.4262,3.4282,3.4287,3.4274,3.4276,3.4281,3.428,3.4294,3.4297,3.4295,3.4295,3.4295,0,3.3959,3.3975,3.4011,3.4025,3.4042,3.4064,3.4079,3.4102,3.4118,3.4147,3.4158,3.4181,3.4202,3.4236,3.4257,3.4278,3.4284,3.4287,3.4287,3.4281,3.4283,3.4282,3.4283,3.4287,3.4287,3.4287,3.4287,0,3.3967,3.3978,3.4001,3.4028,3.4046,3.4068,3.409,3.41,3.4126,3.4142,3.4166,3.4182,3.4212,3.4235,3.4259,3.4273,3.4284,3.4286,3.4289,3.4284,3.4276,3.428,3.4273,3.4286,3.4286,3.4286,3.4286,3.4286,3.3968,3.3983,3.401,3.4035,3.4054,3.4074,3.4089,3.4109,3.413,3.4157,3.4168,3.4192,3.4215,3.4249,3.4263,3.428,3.4283,3.4286,3.4287,3.4288,3.4287,3.4273,3.4285,3.4285,3.4285,3.4285,3.4285,0,3.3976,3.3994,3.4017,3.4048,3.4067,3.4076,3.41,3.4115,3.4136,3.4158,3.4177,3.4204,3.4226,3.4247,3.427,3.428,3.4285,3.4285,3.4284,3.4287,3.4284,3.4279,3.428,3.428,3.428,3.428,3.428,3.428,3.3982,3.4007,3.4021,3.4055,3.4073,3.4097,3.411,3.4128,3.4145,3.4175,3.4193,3.4208,3.4229,3.4253,3.4273,3.4278,3.4286,3.4284,3.4291,3.4287,3.4288,3.4288,3.4284,3.4286,3.4286,3.4293,3.4293,3.4293]}]]